• In Romania
  • List of Countries
  • For 7 days
  • Water Temperature
  • Satellite Maps
  • Weather Map
  • Weather Widgets
  • user-avatar
    Login

    Hourly Weather Ho Chi Minh

    Today, 15 August, Wednesday

    Time Temperature Precipitation Wind Pressure Humidity
    00:00 +27°C° 0 mm 3 mps 756 mmHg 90%
    01:00 +27°C° 0 mm 2 mps 756 mmHg 90%
    02:00 +27°C° 0.2 mm 2 mps 756 mmHg 91%
    03:00 +27°C° 0.2 mm 3 mps 756 mmHg 91%
    04:00 +27°C° 0.2 mm 3 mps 755 mmHg 92%
    05:00 +27°C° 0.2 mm 3 mps 756 mmHg 92%
    06:00 +27°C° 0.2 mm 3 mps 756 mmHg 92%
    07:00 +28°C° 0 mm 3 mps 756 mmHg 91%
    08:00 +29°C° 0.3 mm 3 mps 756 mmHg 83%
    09:00 +30°C° 0.3 mm 4 mps 756 mmHg 76%
    10:00 +33°C° 0.3 mm 5 mps 756 mmHg 69%
    11:00 +33°C° 0.8 mm 5 mps 756 mmHg 69%
    12:00 +33°C° 0.8 mm 5 mps 756 mmHg 68%
    13:00 +34°C° 0 mm 5 mps 755 mmHg 68%
    14:00 +33°C° 1.5 mm 5 mps 755 mmHg 71%
    15:00 +33°C° 1.5 mm 4 mps 754 mmHg 73%
    16:00 +32°C° 1.5 mm 4 mps 754 mmHg 76%
    17:00 +30°C° 0.5 mm 3 mps 754 mmHg 78%
    18:00 +30°C° 0.5 mm 3 mps 754 mmHg 80%
    19:00 +28°C° 0 mm 3 mps 755 mmHg 86%
    20:00 +28°C° 0.5 mm 3 mps 755 mmHg 86%
    21:00 +28°C° 0.5 mm 4 mps 755 mmHg 86%
    22:00 +28°C° 0.5 mm 4 mps 756 mmHg 87%
    23:00 +27°C° 0 mm 4 mps 756 mmHg 88%

    Tomorrow, 16 August, Thursday

    Time Temperature Precipitation Wind Pressure Humidity
    00:00 +27°C° 0 mm 4 mps 756 mmHg 88%
    01:00 +27°C° 0 mm 4 mps 756 mmHg 89%
    02:00 +27°C° 0 mm 4 mps 755 mmHg 90%
    03:00 +27°C° 0 mm 4 mps 755 mmHg 90%
    04:00 +27°C° 0 mm 3 mps 755 mmHg 90%
    05:00 +27°C° 0.1 mm 4 mps 755 mmHg 89%
    06:00 +27°C° 0.1 mm 4 mps 755 mmHg 88%
    07:00 +28°C° 0.1 mm 4 mps 755 mmHg 86%
    08:00 +29°C° 0.1 mm 4 mps 755 mmHg 79%
    09:00 +32°C° 0.1 mm 5 mps 755 mmHg 72%
    10:00 +33°C° 0.1 mm 6 mps 755 mmHg 65%
    11:00 +34°C° 0.6 mm 6 mps 755 mmHg 64%
    12:00 +34°C° 0.6 mm 6 mps 754 mmHg 63%
    13:00 +34°C° 0.6 mm 7 mps 754 mmHg 62%
    14:00 +34°C° 0.9 mm 7 mps 754 mmHg 64%
    15:00 +33°C° 0.9 mm 6 mps 753 mmHg 66%
    16:00 +33°C° 0.9 mm 6 mps 753 mmHg 68%
    17:00 +32°C° 0.1 mm 5 mps 753 mmHg 72%
    18:00 +29°C° 0.1 mm 5 mps 753 mmHg 76%
    19:00 +28°C° 0.1 mm 4 mps 753 mmHg 80%
    20:00 +28°C° 0 mm 4 mps 753 mmHg 81%
    21:00 +28°C° 0 mm 4 mps 754 mmHg 82%
    22:00 +28°C° 0 mm 4 mps 755 mmHg 83%
    23:00 +28°C° 0 mm 4 mps 754 mmHg 84%

    Day after tomorrow, 17 August, Friday

    Time Temperature Precipitation Wind Pressure Humidity
    00:00 +27°C° 0 mm 4 mps 754 mmHg 84%
    01:00 +27°C° 0 mm 3 mps 754 mmHg 85%
    02:00 +27°C° 0 mm 3 mps 753 mmHg 85%
    03:00 +27°C° 0 mm 3 mps 753 mmHg 85%
    04:00 +27°C° 0 mm 3 mps 752 mmHg 86%
    05:00 +27°C° 0.3 mm 4 mps 753 mmHg 87%
    06:00 +27°C° 0.3 mm 4 mps 753 mmHg 88%
    07:00 +27°C° 0.3 mm 4 mps 753 mmHg 89%
    08:00 +28°C° 0.1 mm 4 mps 753 mmHg 87%
    09:00 +28°C° 0.1 mm 5 mps 753 mmHg 85%
    10:00 +29°C° 0.1 mm 5 mps 754 mmHg 83%
    11:00 +30°C° 0.5 mm 6 mps 753 mmHg 78%
    12:00 +32°C° 0.5 mm 6 mps 753 mmHg 73%
    13:00 +33°C° 0.5 mm 7 mps 752 mmHg 69%
    14:00 +33°C° 0.8 mm 7 mps 751 mmHg 70%
    15:00 +33°C° 0.8 mm 6 mps 751 mmHg 71%
    16:00 +33°C° 0.8 mm 6 mps 750 mmHg 72%
    17:00 +32°C° 0.3 mm 5 mps 751 mmHg 76%
    18:00 +29°C° 0.3 mm 5 mps 751 mmHg 80%
    19:00 +28°C° 0.3 mm 4 mps 752 mmHg 84%
    20:00 +28°C° 0 mm 4 mps 753 mmHg 85%
    21:00 +28°C° 0 mm 4 mps 753 mmHg 86%
    22:00 +28°C° 0 mm 4 mps 754 mmHg 88%
    23:00 +27°C° 0.8 mm 4 mps 754 mmHg 89%

    18 August, Saturday

    Time Temperature Precipitation Wind Pressure Humidity
    00:00 +27°C° 0.8 mm 3 mps 753 mmHg 91%
    01:00 +27°C° 0.8 mm 3 mps 753 mmHg 92%
    02:00 +27°C° 0.9 mm 3 mps 753 mmHg 93%
    03:00 +27°C° 0.9 mm 3 mps 753 mmHg 94%
    04:00 +27°C° 0.9 mm 3 mps 752 mmHg 94%
    05:00 +27°C° 0.4 mm 4 mps 753 mmHg 92%
    06:00 +27°C° 0.4 mm 4 mps 753 mmHg 91%
    07:00 +28°C° 0.4 mm 5 mps 753 mmHg 89%
    08:00 +28°C° 0.6 mm 5 mps 754 mmHg 86%
    09:00 +29°C° 0.6 mm 5 mps 754 mmHg 82%
    10:00 +30°C° 0.6 mm 6 mps 754 mmHg 79%
    11:00 +30°C° 1.5 mm 6 mps 754 mmHg 79%
    12:00 +32°C° 1.5 mm 6 mps 753 mmHg 78%
    13:00 +32°C° 1.5 mm 6 mps 753 mmHg 78%
    14:00 +32°C° 1.3 mm 6 mps 752 mmHg 78%
    15:00 +32°C° 1.3 mm 6 mps 752 mmHg 78%
    16:00 +32°C° 1.3 mm 6 mps 751 mmHg 78%
    17:00 +30°C° 0.2 mm 5 mps 752 mmHg 81%
    18:00 +29°C° 0.2 mm 5 mps 753 mmHg 84%
    19:00 +28°C° 0.2 mm 4 mps 753 mmHg 87%
    20:00 +28°C° 0.9 mm 4 mps 754 mmHg 88%
    21:00 +28°C° 0.9 mm 4 mps 755 mmHg 89%
    22:00 +27°C° 0.9 mm 4 mps 755 mmHg 91%
    23:00 +27°C° 1.1 mm 4 mps 755 mmHg 91%

    19 August, Sunday

    Time Temperature Precipitation Wind Pressure Humidity
    00:00 +27°C° 1.1 mm 4 mps 755 mmHg 92%
    01:00 +27°C° 1.1 mm 3 mps 754 mmHg 92%
    02:00 +27°C° 0.8 mm 4 mps 754 mmHg 92%
    03:00 +27°C° 0.8 mm 4 mps 754 mmHg 92%
    04:00 +27°C° 0.8 mm 4 mps 754 mmHg 92%
    05:00 +27°C° 0.1 mm 4 mps 755 mmHg 91%
    06:00 +27°C° 0.1 mm 4 mps 755 mmHg 90%
    07:00 +27°C° 0.1 mm 4 mps 755 mmHg 89%
    08:00 +29°C° 0.6 mm 4 mps 756 mmHg 83%
    09:00 +30°C° 0.6 mm 4 mps 756 mmHg 78%
    10:00 +32°C° 0.6 mm 4 mps 756 mmHg 73%
    11:00 +33°C° 1.1 mm 5 mps 756 mmHg 72%
    12:00 +33°C° 1.1 mm 5 mps 755 mmHg 72%
    13:00 +33°C° 1.1 mm 5 mps 754 mmHg 71%
    14:00 +33°C° 1.4 mm 5 mps 754 mmHg 72%
    15:00 +33°C° 1.4 mm 5 mps 754 mmHg 73%
    16:00 +33°C° 1.4 mm 5 mps 753 mmHg 74%
    17:00 +32°C° 0.4 mm 4 mps 754 mmHg 77%
    18:00 +30°C° 0.4 mm 4 mps 755 mmHg 80%
    19:00 +29°C° 0.4 mm 3 mps 755 mmHg 83%
    20:00 +29°C° 0 mm 3 mps 756 mmHg 84%
    21:00 +28°C° 0 mm 2 mps 757 mmHg 85%
    22:00 +28°C° 0 mm 2 mps 757 mmHg 86%
    23:00 +28°C° 0.1 mm 2 mps 757 mmHg 87%

    20 August, Monday

    Time Temperature Precipitation Wind Pressure Humidity
    00:00 +27°C° 0.1 mm 2 mps 756 mmHg 88%
    01:00 +27°C° 0.1 mm 2 mps 756 mmHg 90%
    02:00 +27°C° 0.1 mm 2 mps 756 mmHg 90%
    03:00 +27°C° 0.1 mm 1 mps 756 mmHg 91%
    04:00 +27°C° 0.1 mm 1 mps 756 mmHg 91%
    05:00 +27°C° 0 mm 1 mps 756 mmHg 89%
    06:00 +27°C° 0 mm 1 mps 757 mmHg 88%
    07:00 +28°C° 0 mm 1 mps 757 mmHg 86%
    08:00 +30°C° 0 mm 2 mps 757 mmHg 78%
    09:00 +31°C° 0 mm 3 mps 757 mmHg 71%
    10:00 +34°C° 0 mm 3 mps 757 mmHg 63%
    11:00 +34°C° 0.7 mm 4 mps 757 mmHg 64%
    12:00 +34°C° 0.7 mm 4 mps 756 mmHg 64%
    13:00 +35°C° 0.7 mm 4 mps 755 mmHg 64%
    14:00 +34°C° 2 mm 4 mps 755 mmHg 67%
    15:00 +34°C° 2 mm 4 mps 755 mmHg 70%
    16:00 +33°C° 2 mm 4 mps 754 mmHg 73%
    17:00 +31°C° 1.5 mm 3 mps 755 mmHg 77%
    18:00 +30°C° 1.5 mm 3 mps 755 mmHg 81%
    19:00 +29°C° 1.5 mm 2 mps 756 mmHg 85%
    20:00 +29°C° 0.1 mm 2 mps 756 mmHg 86%
    21:00 +28°C° 0.1 mm 2 mps 756 mmHg 87%
    22:00 +28°C° 0.1 mm 2 mps 757 mmHg 87%
    23:00 +28°C° 0 mm 2 mps 756 mmHg 88%
    Show more